(229484) = 2001 SO191 = 2005 UU369

Discovered at Kitt Peak on 2005-10-27 by Spacewatch.

Orbit

Orbit type: Main Belt

Note: WebGL enabled browser required.

epoch2023-09-13.0
epoch JD2460200.5
perihelion date2020-09-04.16042
perihelion JD2459096.66042
argument of perihelion (°)308.12573
ascending node (°)110.74278
inclination (°)2.31671
eccentricity0.1695267
perihelion distance (AU)1.9821200
Tisserand w.r.t. Jupiter3.5
ΔV w.r.t. Earth (km/sec)8.8
semimajor axis (AU)2.3867354
mean anomaly (°)295.05528
mean daily motion (°/day)0.26729910
aphelion distance (AU)2.791
period (years)3.69
P-vector [x]0.51640267
P-vector [y]0.79778912
P-vector [z]0.31122470
Q-vector [x]-0.85551109
Q-vector [y]0.46457858
Q-vector [z]0.22862090
absolute magnitude17.38
phase slope0.15
uncertainty0
referenceMPO 778612
observations used382
oppositions15
arc length (days)9025
first opposition used1999
last opposition used2023
residual rms (arc-secs)0.70
perturbers coarse indicatorM-v
perturbers precise indicator003Ek
first observation date used1999-01-17.0
last observation date used2023-10-03.0
computer nameMPCLINUX
JD of orbit computation2456819.682830
perihelion JD uncertainty (days)6.3319E-05
argument of perihelion uncertainty (°)1.0984E-04
ascending node uncertainty (°)1.0849E-04
inclination uncertainty (°)3.7226E-06
eccentricity uncertainty 3.6452E-08
perihelion distance uncertainty (AU)8.8528E-08
Minimum Orbit Intersection Distances (in AU)
for orbit epoch: 2460200.5, reference: E2023-T15
Mercury1.67079
Venus1.26031
Earth0.99442
Mars0.45738
Jupiter2.53382
Saturn6.94578
Uranus15.889
Neptune27.7

Observations

385 total observations over interval: 1999 01 17.46801 – 2023 10 03.285309
These data are available for download (format description).

Date (UT) J2000 RA J2000 Dec Magn Location Ref
1999 01 17.46801 09 01 27.08 +18 02 26.0 19.8 V 691 – Steward Observatory, Kitt Peak-Spacewatch MPS 151058
1999 01 17.49047 09 01 25.81 +18 02 32.4 20.1 V 691 – Steward Observatory, Kitt Peak-Spacewatch MPS 151058
1999 01 17.51288 09 01 24.50 +18 02 39.4 20.2 V 691 – Steward Observatory, Kitt Peak-Spacewatch MPS 151058
2001 09 19.25103 23 25 15.59 -07 51 01.0 19.0   704 – Lincoln Laboratory ETS, New Mexico MPS 36731
2001 09 19.26517 23 25 14.80 -07 51 06.3 19.4   704 – Lincoln Laboratory ETS, New Mexico MPS 36731
2001 09 19.29357 23 25 13.19 -07 51 16.7 19.4   704 – Lincoln Laboratory ETS, New Mexico MPS 36731
2001 09 19.30770 23 25 12.42 -07 51 22.4 19.2   704 – Lincoln Laboratory ETS, New Mexico MPS 36731
2001 09 21.25044 23 23 28.80 -08 03 18.9 19.5   704 – Lincoln Laboratory ETS, New Mexico MPS 36731
2001 09 21.27878 23 23 27.20 -08 03 29.3 19.7   704 – Lincoln Laboratory ETS, New Mexico MPS 36731
2001 09 21.29293 23 23 26.42 -08 03 34.0 20.0   704 – Lincoln Laboratory ETS, New Mexico MPS 36731
2001 09 21.30708 23 23 25.63 -08 03 38.7 19.5   704 – Lincoln Laboratory ETS, New Mexico MPS 36731
2005 10 22.34797 03 49 25.03 +15 59 28.9 19.4 V 691 – Steward Observatory, Kitt Peak-Spacewatch MPS 151058
2005 10 22.36534 03 49 24.47 +15 59 27.4 19.7 V 691 – Steward Observatory, Kitt Peak-Spacewatch MPS 151058
2005 10 22.38264 03 49 23.89 +15 59 25.3 19.7 V 691 – Steward Observatory, Kitt Peak-Spacewatch MPS 151058
2005 10 27.37110 03 46 31.85 +15 48 19.7 19.7 V 691 – Steward Observatory, Kitt Peak-Spacewatch MPS 151058
2005 10 27.38851 03 46 31.11 +15 48 17.3 19.6 V 691 – Steward Observatory, Kitt Peak-Spacewatch MPS 151058
2005 10 27.40612 03 46 30.36 +15 48 14.9 19.6 V 691 – Steward Observatory, Kitt Peak-Spacewatch MPS 151058
2005 10 31.29134 03 43 44.66 +15 38 40.0 19.4   704 – Lincoln Laboratory ETS, New Mexico MPS 151058
2005 10 31.31515 03 43 43.50 +15 38 36.7 19.7   704 – Lincoln Laboratory ETS, New Mexico MPS 151058
2005 10 31.33899 03 43 42.38 +15 38 33.6 19.7   704 – Lincoln Laboratory ETS, New Mexico MPS 151058
2005 10 31.34679 03 43 42.04 +15 38 32.5 19.6 V 691 – Steward Observatory, Kitt Peak-Spacewatch MPS 151058
2005 10 31.36423 03 43 41.18 +15 38 30.0 19.6 V 691 – Steward Observatory, Kitt Peak-Spacewatch MPS 151058
2005 10 31.38155 03 43 40.33 +15 38 27.2 19.6 V 691 – Steward Observatory, Kitt Peak-Spacewatch MPS 151058
2005 11 03.33055 03 41 18.13 +15 30 48.1 19.7   704 – Lincoln Laboratory ETS, New Mexico MPS 151058
2005 11 03.34284 03 41 17.47 +15 30 45.4 19.8   704 – Lincoln Laboratory ETS, New Mexico MPS 151058
2005 11 03.35498 03 41 16.79 +15 30 43.5 19.8   704 – Lincoln Laboratory ETS, New Mexico MPS 151058
2005 11 03.36722 03 41 16.18 +15 30 42.8 20.0   704 – Lincoln Laboratory ETS, New Mexico MPS 151058
2005 11 06.31821 03 38 42.40 +15 22 49.9 19.2   704 – Lincoln Laboratory ETS, New Mexico MPS 151058
2005 11 06.33238 03 38 41.62 +15 22 47.8 19.2   704 – Lincoln Laboratory ETS, New Mexico MPS 151058
2005 11 06.34545 03 38 40.86 +15 22 45.3 19.2   704 – Lincoln Laboratory ETS, New Mexico MPS 151058
2005 11 06.35807 03 38 40.12 +15 22 43.6 19.3   704 – Lincoln Laboratory ETS, New Mexico MPS 151058
2005 11 06.37043 03 38 39.45 +15 22 41.5 19.9   704 – Lincoln Laboratory ETS, New Mexico MPS 151058
2005 11 20.40252 03 25 09.65 +14 46 40.9 19.1 R 699 – Lowell Observatory-LONEOS MPS 151058
2005 11 20.41895 03 25 08.62 +14 46 38.8   699 – Lowell Observatory-LONEOS MPS 151058
2005 11 20.43538 03 25 07.69 +14 46 38.4   699 – Lowell Observatory-LONEOS MPS 151058
2005 11 20.45181 03 25 06.68 +14 46 34.4   699 – Lowell Observatory-LONEOS MPS 151058
2005 11 26.34379 03 19 34.96 +14 34 37.7 19.1 V 703 – Catalina Sky Survey MPS 152305
2005 11 26.35034 03 19 34.60 +14 34 36.9 19.0 V 703 – Catalina Sky Survey MPS 152305
2005 11 26.35684 03 19 34.24 +14 34 35.3 20.4 V 703 – Catalina Sky Survey MPS 152305
2005 11 26.36337 03 19 33.88 +14 34 35.4 18.9 V 703 – Catalina Sky Survey MPS 152305
2005 11 29.17938 03 17 07.15 +14 30 03.8 19.3 R 699 – Lowell Observatory-LONEOS MPS 152305
2005 11 29.20219 03 17 05.78 +14 30 01.3   699 – Lowell Observatory-LONEOS MPS 152305
2005 11 29.22501 03 17 04.63 +14 29 59.5   699 – Lowell Observatory-LONEOS MPS 152305
2005 11 29.24782 03 17 03.34 +14 29 57.7   699 – Lowell Observatory-LONEOS MPS 152305
2005 11 30.21069 03 16 15.38 +14 28 37.2 19.9   704 – Lincoln Laboratory ETS, New Mexico MPS 152305
2005 11 30.21945 03 16 14.98 +14 28 36.2 19.5 R 644 – Palomar Mountain/NEAT MPS 153822
2005 11 30.22334 03 16 14.75 +14 28 35.7 19.4 R 644 – Palomar Mountain/NEAT MPS 153822
2005 11 30.22343 03 16 14.76 +14 28 35.7 20.0   704 – Lincoln Laboratory ETS, New Mexico MPS 152305
2005 11 30.23599 03 16 14.14 +14 28 36.1 20.0   704 – Lincoln Laboratory ETS, New Mexico MPS 152305
2005 11 30.24239 03 16 13.80 +14 28 34.4 19.9 R 644 – Palomar Mountain/NEAT MPS 153822
2005 11 30.24389 03 16 13.68 +14 28 34.7 19.7 R 644 – Palomar Mountain/NEAT MPS 153822
2005 11 30.24863 03 16 13.42 +14 28 33.9 20.3   704 – Lincoln Laboratory ETS, New Mexico MPS 152305
2005 11 30.26329 03 16 12.71 +14 28 33.2 20.0 R 644 – Palomar Mountain/NEAT MPS 153822
2005 11 30.26489 03 16 12.56 +14 28 32.8 20.2 R 644 – Palomar Mountain/NEAT MPS 153822
2005 12 01.26131 03 15 24.19 +14 27 16.3 18.9 V G96 – Mt. Lemmon Survey MPS 152305
2005 12 01.26928 03 15 23.79 +14 27 15.8 19.2 V G96 – Mt. Lemmon Survey MPS 152305
2005 12 01.27734 03 15 23.36 +14 27 15.4 19.2 V G96 – Mt. Lemmon Survey MPS 152305
2005 12 01.28536 03 15 22.96 +14 27 14.7 19.0 V G96 – Mt. Lemmon Survey MPS 152305
2005 12 07.20032 03 11 08.41 +14 22 26.4 19.8   704 – Lincoln Laboratory ETS, New Mexico MPS 153822
2005 12 07.21315 03 11 07.84 +14 22 28.1 20.1   704 – Lincoln Laboratory ETS, New Mexico MPS 153822
2005 12 07.22615 03 11 07.33 +14 22 28.8 20.2   704 – Lincoln Laboratory ETS, New Mexico MPS 153822
2005 12 07.23883 03 11 06.76 +14 22 28.2 19.9   704 – Lincoln Laboratory ETS, New Mexico MPS 153822
2005 12 08.07898 03 10 36.13 +14 22 09.4 19.7 V 691 – Steward Observatory, Kitt Peak-Spacewatch MPS 153822
2005 12 08.09998 03 10 35.34 +14 22 09.1 19.8 V 691 – Steward Observatory, Kitt Peak-Spacewatch MPS 153822
2005 12 08.12098 03 10 34.53 +14 22 09.0 19.9 V 691 – Steward Observatory, Kitt Peak-Spacewatch MPS 153822
2005 12 29.16047 03 05 33.90 +14 50 03.5 19.9 V G96 – Mt. Lemmon Survey MPS 156620
2005 12 29.16859 03 05 33.93 +14 50 04.8 19.9 V G96 – Mt. Lemmon Survey MPS 156620
2005 12 29.17654 03 05 33.97 +14 50 06.1 19.8 V G96 – Mt. Lemmon Survey MPS 156620
2005 12 29.18590 03 05 34.04 +14 50 07.8 20.0 V G96 – Mt. Lemmon Survey MPS 156620
2006 01 22.10667 03 18 41.90 +16 32 45.6 20.7 V G96 – Mt. Lemmon Survey MPS 160481
2006 01 22.11273 03 18 42.19 +16 32 47.5 20.7 V G96 – Mt. Lemmon Survey MPS 160481
2006 01 22.11877 03 18 42.55 +16 32 48.9 20.2 V G96 – Mt. Lemmon Survey MPS 160481
2006 01 22.12480 03 18 42.87 +16 32 51.3 20.6 V G96 – Mt. Lemmon Survey MPS 160481
2007 03 13.41008 14 01 35.76 -08 46 12.1 21.3 V G96 – Mt. Lemmon Survey MPS 203111
2007 03 13.41922 14 01 35.50 -08 46 10.1 21.2 V G96 – Mt. Lemmon Survey MPS 203111
2007 03 13.42837 14 01 35.22 -08 46 08.3 21.7 V G96 – Mt. Lemmon Survey MPS 203111
2007 03 13.43749 14 01 34.96 -08 46 06.2 21.0 V G96 – Mt. Lemmon Survey MPS 203111
2007 03 15.48268 14 00 35.50 -08 38 37.1 21.3 V 691 – Steward Observatory, Kitt Peak-Spacewatch MPS 203111
2007 03 15.50038 14 00 34.91 -08 38 32.6 21.8 V 691 – Steward Observatory, Kitt Peak-Spacewatch MPS 203111
2007 03 15.51808 14 00 34.34 -08 38 28.9 21.4 V 691 – Steward Observatory, Kitt Peak-Spacewatch MPS 203111
2007 04 11.22865 13 39 58.21 -06 26 45.3 21.7 V 691 – Steward Observatory, Kitt Peak-Spacewatch MPS 206195
2007 04 11.24623 13 39 57.17 -06 26 39.6 21.2 V 691 – Steward Observatory, Kitt Peak-Spacewatch MPS 206195
2007 04 11.26380 13 39 56.20 -06 26 34.0 21.8 V 691 – Steward Observatory, Kitt Peak-Spacewatch MPS 206195
2007 04 20.28855 13 31 27.44 -05 38 01.1 20.8 V G96 – Mt. Lemmon Survey MPS 208101
2007 04 20.29421 13 31 27.08 -05 37 59.3 20.6 V G96 – Mt. Lemmon Survey MPS 208101
2007 04 20.29973 13 31 26.79 -05 37 58.0 20.5 V G96 – Mt. Lemmon Survey MPS 208101
